Back to catalog

CZ-6A DEB

AlivePO
NORAD 60965·DEBRIS·🇨🇳 China

Launched Aug 6, 2024 from Taiyuan Satellite Launch Center

Loading…

Next Passes (next 24 hours)

TLE

FreshSource: Space-Track

Epoch: Sep 14, 2026, 06:05 UTC

1 60965U 24140LQ  26257.25355968  .00003515  00000-0  28898-3 0  9994
2 60965  88.9234 247.9176 0168605 186.4034 173.5044 14.88345530111637

Track CZ-6A DEB in real time with AllMySat

Download on the App Store